Flag for Norway Weather past 2 weeks in Drammen, Norway

Now
54 °F

Passing clouds.


Feels Like: 51 °F
Forecast: 58 / 81 °F
Wind: 9 mph from Southwest

Location: Oslo / Fornebu

Current Time: Jul 3, 2015 at 2:10:09 AM

Latest Report: Jul 3, 2015 at 1:20 AM


Visibility: 3 mi

Pressure: 30.07 "Hg

Humidity: 100%

Dew point: 54 °F

Location of DrammenLocation

Historic Weather in Drammen — Graph

°F

Drammen temperature yesterday

Maximum temperature yesterday: 59 °F (at 4:20 AM)
Minimum temperature yesterday: 54 °F (at 8:50 PM)
Average temperature yesterday: 58 °F

Past Weeks' High & Low Weather Summary

 TemperatureHumidityPressure
High59 °F (Jul 2, 4:20 AM)100% (Jun 18, 12:20 AM)30.12 "Hg (Jun 18, 12:20 AM)
Low46 °F (Jun 19, 4:50 AM)63% (Jun 24, 2:50 PM)29.68 "Hg (Jun 18, 12:20 AM)
Average52 °F88%29.95 "Hg
* Reported Jun 18 12:20 AM — Jul 3 12:50 AM, Drammen, Weather by CustomWeather, © 2015

Note: Actual official high and low records may vary slightly from our data, if they occured in-between our weather recording intervals... More about our weather records

Advertising

Drammen weather history for previous 24 hours

 ConditionsComfort  
Time TempWeatherWind HumidityBarometerVisibility
12:50 AM
Fri, Jul 3
54 °FPassing clouds.13 mph100%30.07 "Hg3 mi
12:20 AM54 °FFog.16 mph100%30.07 "Hg2 mi
11:50 PM
Thu, Jul 2
54 °FFog.16 mph100%30.07 "Hg2 mi
11:20 PM54 °FFog.24 mph100%30.07 "Hg2 mi
10:50 PM54 °FFog.30 mph100%30.07 "Hg2 mi
10:20 PM54 °FFog.29 mph100%30.07 "Hg3 mi
9:50 PM54 °FFog.23 mph100%30.04 "Hg2 mi
9:20 PM54 °FFog.26 mph100%30.04 "Hg2 mi
8:50 PM54 °FFog.31 mph100%30.04 "Hg2 mi
8:20 PM55 °FFog.30 mph94%30.01 "Hg2 mi
7:50 PM55 °FFog.33 mph94%30.01 "Hg3 mi
7:20 PM55 °FLow clouds.35 mph94%30.01 "Hg4 mi
6:50 PM55 °FLow clouds.37 mph94%30.01 "Hg5 mi
6:20 PM57 °FOvercast.39 mph88%30.01 "Hg6 mi
5:50 PM57 °FPartly sunny.44 mph88%29.98 "HgN/A
5:20 PM57 °FOvercast.45 mph88%29.98 "HgN/A
4:50 PM59 °FPartly sunny.45 mph82%29.98 "HgN/A
4:20 PM59 °FScattered clouds.46 mph82%29.98 "HgN/A
3:50 PM59 °FScattered clouds.45 mph82%29.98 "HgN/A
3:20 PM59 °FScattered clouds.44 mph82%29.98 "HgN/A
2:50 PM59 °FPassing clouds.43 mph82%30.01 "HgN/A
2:20 PM59 °FSprinkles. Passing clouds.41 mph82%30.01 "HgN/A
1:50 PM59 °FPartly sunny.40 mph82%30.01 "HgN/A
1:20 PM59 °FPassing clouds.45 mph82%30.01 "HgN/A
12:50 PM59 °FPassing clouds.39 mph82%30.04 "HgN/A
12:20 PM59 °FPassing clouds.41 mph82%30.01 "HgN/A
11:50 AM59 °FPassing clouds.47 mph82%30.01 "HgN/A
11:20 AM59 °FPassing clouds.50 mph82%30.01 "HgN/A
10:50 AM59 °FScattered clouds.50 mph82%30.01 "HgN/A
10:20 AM59 °FScattered clouds.50 mph82%29.98 "HgN/A
9:50 AM59 °FScattered clouds.44 mph82%30.01 "HgN/A
9:20 AM59 °FScattered clouds.48 mph82%30.01 "HgN/A
8:50 AM59 °FPassing clouds.45 mph82%30.04 "HgN/A
8:20 AM59 °FScattered clouds.48 mph82%30.01 "HgN/A
7:50 AM59 °FLight rain. Passing clouds.47 mph82%30.04 "HgN/A
7:20 AM59 °FPassing clouds.50 mph82%30.01 "HgN/A
6:50 AM59 °FPartly sunny.51 mph82%30.01 "HgN/A
6:20 AM59 °FPartly sunny.48 mph82%30.01 "HgN/A
5:50 AM59 °FPartly sunny.46 mph77%30.01 "HgN/A
5:20 AM59 °FPartly sunny.50 mph77%30.01 "HgN/A
4:50 AM59 °FPassing clouds.48 mph82%30.04 "HgN/A
4:20 AM59 °FPassing clouds.48 mph82%30.01 "HgN/A
3:50 AM57 °FPassing clouds.48 mph88%30.04 "HgN/A
3:20 AM57 °FPassing clouds.46 mph82%30.04 "HgN/A
2:50 AM57 °FPassing clouds.46 mph82%30.07 "HgN/A
2:20 AM57 °FPassing clouds.45 mph82%30.07 "HgN/A
Weather by CustomWeather, © 2015

See weather overviewHow to use our weather pages